Weather History for Minneapolis Flying Cloud, MN

Change the Weather History Date:

Thursday, March 6, 2014

  Actual Average Record
Temperature  
Mean Temperature 20 °F -  
Max Temperature 27 °F 28 °F 60 °F (2005)
Min Temperature 12 °F 13 °F 1 °F (2008)
Degree Days  
Heating Degree Days 46    
Moisture  
Dew Point 14 °F    
Average Humidity 76    
Maximum Humidity 81    
Minimum Humidity 68    
Precipitation  
Precipitation 0.00 in - - ()
Sea Level Pressure  
Sea Level Pressure 30.09 in    
Wind  
Wind Speed 12 mph (SSE)    
Max Wind Speed 23 mph    
Max Gust Speed 32 mph    
Visibility 8 miles    
Events      
Averages and records for this station are not official NWS values.
T = Trace of Precipitation, MM = Missing Value Source: NWS Daily Summary

Daily Weather History Graph

Daily Weather History Graph

Search for Another Location

Airport:

Trip Planner

Search our weather history database for the weather conditions in past years. The results will help you decide how hot, cold, wet, or windy it might be!

Date:

Astronomy

Mar. 06, 2014 Rise Set
Actual Time 6:42 AM CST 6:08 PM CST
Civil Twilight 6:13 AM CST 6:37 PM CST
Nautical Twilight 5:39 AM CST 7:11 PM CST
Astronomical Twilight 5:05 AM CST 7:45 PM CST
Moon 9:36 AM CST (3/6) No Moon Set
Length of Visible Light 12h 24m
Length of Day
11h 25m
Waxing Crescent, 32% of the Moon is Illuminated
Mar 6
Waxing Crescent
Mar 8
First Quarter
Mar 16
Full
Mar 23
Last Quarter
Mar 30
New

Hourly Weather History & Observations

Time (CST) Temp. Windchill Dew Point Humidity Pressure Visibility Wind Dir Wind Speed Gust Speed Precip Events Conditions
12:53 AM 12.0 °F 1.5 °F 5.0 °F 73% 30.37 in 10.0 mi SSE 6.9 mph - N/A   Clear
1:53 AM 12.9 °F 0.7 °F 5.0 °F 71% 30.34 in 10.0 mi SSE 9.2 mph - N/A   Clear
2:28 AM 12.2 °F 1.7 °F 5.0 °F 73% 30.28 in 10.0 mi South 6.9 mph - N/A   Mostly Cloudy
2:53 AM 12.9 °F -0.2 °F 5.0 °F 71% 30.32 in 10.0 mi SSE 10.4 mph - N/A   Overcast
3:53 AM 15.1 °F 1.1 °F 7.0 °F 70% 30.30 in 10.0 mi SSE 12.7 mph - N/A   Overcast
4:53 AM 15.1 °F 4.2 °F 7.0 °F 70% 30.30 in 10.0 mi SSE 8.1 mph - N/A   Mostly Cloudy
5:27 AM 15.8 °F 2.7 °F 6.8 °F 68% 30.22 in 10.0 mi SSE 11.5 mph - N/A   Scattered Clouds
5:53 AM 15.1 °F 1.1 °F 8.1 °F 74% 30.25 in 10.0 mi SSE 12.7 mph - N/A   Clear
6:53 AM 16.0 °F 1.7 °F 9.0 °F 74% 30.22 in 10.0 mi SSE 13.8 mph - N/A   Clear
7:53 AM 18.0 °F 4.8 °F 10.9 °F 74% 30.20 in 10.0 mi South 12.7 mph - N/A   Clear
8:53 AM 19.0 °F 5.0 °F 12.0 °F 74% 30.19 in 10.0 mi South 15.0 mph - N/A   Clear
9:35 AM 21.2 °F 7.3 °F 14.0 °F 74% 30.14 in 10.0 mi South 16.1 mph 20.7 mph N/A   Mostly Cloudy
9:53 AM 19.9 °F 4.3 °F 14.0 °F 78% 30.19 in 10.0 mi South 19.6 mph - N/A   Overcast
10:53 AM 21.9 °F 8.2 °F 15.1 °F 75% 30.14 in 10.0 mi SSE 16.1 mph - N/A   Overcast
11:53 AM 24.1 °F 10.1 °F 17.1 °F 75% 30.11 in 8.0 mi SSE 18.4 mph - N/A   Overcast
12:53 PM 25.0 °F 11.3 °F 19.0 °F 78% 30.06 in 5.0 mi South 18.4 mph 31.1 mph N/A   Haze
1:37 PM 26.6 °F 12.0 °F 19.4 °F 74% 29.99 in 6.0 mi South 23.0 mph 29.9 mph N/A   Haze
1:53 PM 27.0 °F 13.5 °F 21.0 °F 78% 30.04 in 6.0 mi South 19.6 mph 32.2 mph N/A   Haze
2:53 PM 27.0 °F 13.9 °F 21.0 °F 78% 30.00 in 6.0 mi South 18.4 mph 27.6 mph N/A   Haze
3:53 PM 26.1 °F 13.1 °F 21.0 °F 81% 29.96 in 5.0 mi South 17.3 mph 29.9 mph N/A   Haze
4:53 PM 26.1 °F 12.3 °F 19.9 °F 78% 29.96 in 5.0 mi South 19.6 mph - N/A   Haze
5:53 PM 25.0 °F 14.2 °F 19.9 °F 81% 29.96 in 4.0 mi South 11.5 mph - N/A   Haze
6:53 PM 25.0 °F 13.6 °F 19.9 °F 81% 29.95 in 6.0 mi South 12.7 mph - N/A   Haze
7:24 PM 24.8 °F 11.5 °F 19.4 °F 80% 29.90 in 7.0 mi South 17.3 mph - N/A   Overcast
7:53 PM 24.1 °F 12.0 °F 19.0 °F 81% 29.92 in 7.0 mi South 13.8 mph - N/A   Overcast
8:43 PM 23.0 °F 11.1 °F 17.6 °F 80% 29.86 in 6.0 mi SSE 12.7 mph - N/A   Haze
8:53 PM 23.0 °F 13.1 °F 18.0 °F 81% 29.90 in 6.0 mi SSE 9.2 mph - N/A   Haze
9:53 PM 23.0 °F 13.9 °F 18.0 °F 81% 29.88 in 5.0 mi SSE 8.1 mph - N/A   Haze
10:53 PM 24.1 °F 16.0 °F 19.0 °F 81% 29.86 in 5.0 mi SSE 6.9 mph - N/A   Haze
11:53 PM 26.1 °F 16.8 °F 21.0 °F 81% 29.84 in 4.0 mi SSE 9.2 mph - N/A   Haze